CW7200 Weather Reports


Display with metric or nautical units.
time (UTC)temp
F
wind
direction
speed
MPH
gust
MPH
rain 1hr
in
rain 24hr
in
rain mn
in
humidity
%
barometer
mb
20260906014504 60 0 0.0 0.0 0.00 0.00 0.00 92 1023.5
20260906013818 60 0 0.0 0.0 0.00 0.00 0.00 92 1023.6
20260906012703 60 0 0.0 0.0 0.00 0.00 0.00 92 1023.7
20260906011804 60 0 0.0 0.0 0.00 0.00 0.00 92 1023.6
20260906010904 60 0 0.0 0.0 0.00 0.00 0.00 92 1023.5
20260906010004 60 0 0.0 0.0 0.00 0.00 0.00 92 1023.5
20260906005404 60 0 0.0 0.0 0.00 0.00 0.00 92 1023.4
20260906004504 60 0 0.0 0.0 0.00 0.00 0.00 92 1023.4
20260906003604 60 0 0.0 0.0 0.00 0.00 0.00 92 1023.4
20260906002704 60 0 0.0 0.0 0.00 0.00 0.00 92 1023.4
20260906002018 60 0 0.0 0.0 0.00 0.00 0.00 92 1023.4
20260906000904 60 0 0.0 0.0 0.00 0.00 0.00 92 1023.3
20260906000004 60 0 0.0 0.0 0.00 0.00 0.00 92 1023.3
20260905235404 60 0 0.0 0.0 0.00 0.00 0.00 92 1023.1
20260905234504 61 0 0.0 0.0 0.00 0.00 0.00 91 1023.0
20260905233819 61 0 0.0 0.0 0.00 0.00 0.00 91 1023.0
20260905232921 61 0 0.0 0.0 0.00 0.00 0.00 91 1023.0
20260905232018 61 0 0.0 0.0 0.00 0.00 0.00 91 1023.1
20260905231121 61 0 0.0 0.0 0.00 0.00 0.00 90 1023.0
20260905230003 62 0 0.0 0.0 0.00 0.00 0.00 90 1023.0
20260905225404 62 0 0.0 0.0 0.00 0.00 0.00 91 1023.0
20260905224504 62 0 0.0 0.0 0.00 0.00 0.00 90 1022.9
20260905223604 62 0 0.0 0.0 0.00 0.00 0.00 90 1022.9
20260905222704 62 0 0.0 0.0 0.00 0.00 0.00 90 1022.9
20260905221804 63 0 0.0 0.0 0.00 0.00 0.00 89 1022.9
20260905220904 63 0 0.0 0.0 0.00 0.00 0.00 89 1022.8
20260905220039 64 0 0.0 0.0 0.00 0.00 0.00 89 1022.7
20260905215404 64 0 0.0 0.0 0.00 0.00 0.00 88 1022.6
20260905214503 64 0 0.0 0.0 0.00 0.00 0.00 89 1022.6
20260905213604 65 0 0.0 0.0 0.00 0.00 0.00 88 1022.5
20260905212704 65 0 0.0 0.0 0.00 0.00 0.00 88 1022.5
20260905211804 65 0 0.0 0.0 0.00 0.00 0.00 87 1022.3
20260905210904 65 0 0.0 0.0 0.00 0.00 0.00 87 1022.1
20260905210004 65 0 0.0 0.0 0.00 0.00 0.00 87 1022.2
20260905205404 65 0 0.0 0.0 0.00 0.00 0.00 87 1022.3
20260905204504 65 0 0.0 0.0 0.00 0.00 0.00 86 1022.3
20260905203604 66 0 0.0 0.0 0.00 0.00 0.00 86 1022.2
20260905202704 66 0 0.0 0.0 0.00 0.00 0.00 85 1022.1
20260905202021 66 0 0.0 0.0 0.00 0.00 0.00 85 1022.0
20260905200904 66 0 0.0 0.0 0.00 0.00 0.00 84 1022.0
20260905200004 67 0 0.0 0.0 0.00 0.00 0.00 84 1021.7
20260905195622 67 0 0.0 0.0 0.00 0.00 0.00 84 1021.6
20260905194504 67 0 0.0 0.0 0.00 0.00 0.00 83 1021.5
20260905193604 67 0 0.0 0.0 0.00 0.00 0.00 82 1021.4
20260905192704 67 0 0.0 0.0 0.00 0.00 0.00 82 1021.3
20260905191804 68 0 0.0 0.0 0.00 0.00 0.00 80 1021.0
20260905190904 68 0 0.0 0.0 0.00 0.00 0.00 80 1021.0
20260905190221 68 0 0.0 0.0 0.00 0.00 0.00 79 1020.8
20260905185404 68 0 0.0 0.0 0.00 0.00 0.00 79 1020.8
20260905184504 68 0 0.0 0.0 0.00 0.00 0.00 80 1020.7
20260905183604 68 0 0.0 0.0 0.00 0.00 0.00 81 1020.8
20260905182703 68 0 0.0 0.0 0.00 0.00 0.00 82 1020.7
20260905181804 68 0 0.0 0.0 0.00 0.00 0.00 82 1020.5
20260905181119 67 0 0.0 0.0 0.00 0.00 0.00 83 1020.4
20260905180004 67 0 0.0 0.0 0.00 0.00 0.00 82 1020.5
20260905175404 67 0 0.0 0.0 0.00 0.00 0.00 82 1020.3
20260905174504 67 0 0.0 0.0 0.00 0.00 0.00 82 1020.1
20260905173604 68 0 0.0 0.0 0.00 0.00 0.00 82 1019.9
20260905172704 68 0 0.0 0.0 0.00 0.00 0.00 82 1019.8
20260905171804 69 0 0.0 0.0 0.00 0.00 0.00 81 1019.7
20260905170904 70 0 0.0 0.0 0.00 0.00 0.00 80 1019.8
20260905170222 70 0 0.0 0.0 0.00 0.00 0.00 80 1019.7
20260905165618 71 0 0.0 0.0 0.00 0.00 0.00 78 1019.6
20260905164503 71 0 0.0 0.0 0.00 0.00 0.00 78 1019.5
20260905163604 72 0 0.0 0.0 0.00 0.00 0.00 77 1019.4
20260905162921 72 0 0.0 0.0 0.00 0.00 0.00 76 1019.3
20260905161804 72 0 0.0 0.0 0.00 0.00 0.00 74 1019.4
20260905160904 72 0 0.0 0.0 0.00 0.00 0.00 73 1019.4
20260905160004 73 0 0.0 0.0 0.00 0.00 0.00 74 1019.4
20260905155404 73 0 0.0 0.0 0.00 0.00 0.00 72 1019.4
20260905154505 73 0 0.0 0.0 0.00 0.00 0.00 69 1019.5
20260905153604 73 344 0.0 1.0 0.00 0.00 0.00 68 1019.3
20260905152704 73 344 0.0 1.0 0.00 0.00 0.00 66 1019.2
20260905151804 73 344 0.0 1.0 0.00 0.00 0.00 67 1019.3
20260905150904 73 0 0.0 0.0 0.00 0.00 0.00 69 1019.3
20260905150218 73 0 0.0 0.0 0.00 0.00 0.00 76 1019.3
20260905145404 72 0 0.0 0.0 0.00 0.00 0.00 73 1019.5
20260905144504 72 0 0.0 0.0 0.00 0.00 0.00 69 1019.5
20260905143604 72 0 0.0 0.0 0.00 0.00 0.00 72 1019.7
20260905142704 72 0 0.0 0.0 0.00 0.00 0.00 71 1019.8
20260905141806 72 0 0.0 0.0 0.00 0.00 0.00 72 1019.8
20260905140904 72 0 0.0 0.0 0.00 0.00 0.00 76 1019.8
20260905140219 72 0 0.0 0.0 0.00 0.00 0.00 73 1019.9
20260905135404 72 0 0.0 0.0 0.00 0.00 0.00 72 1019.9
20260905134504 72 0 0.0 0.0 0.00 0.00 0.00 69 1020.2
20260905133604 72 0 0.0 0.0 0.00 0.00 0.00 70 1020.0
20260905132703 72 341 1.0 1.0 0.00 0.00 0.00 68 1020.2
20260905131804 73 344 0.0 3.0 0.00 0.00 0.00 63 1019.9
20260905130904 74 344 1.0 2.0 0.00 0.00 0.00 62 1019.8
20260905130220 75 358 1.0 1.0 0.00 0.00 0.00 59 1019.8
20260905125404 75 21 1.0 4.0 0.00 0.00 0.00 58 1019.8
20260905124504 75 0 1.0 0.0 0.00 0.00 0.00 57 1019.9
20260905123604 76 0 0.0 0.0 0.00 0.00 0.00 56 1019.7
20260905122918 76 0 1.0 0.0 0.00 0.00 0.00 55 1019.5
20260905121804 76 148 1.0 7.0 0.00 0.00 0.00 55 1019.3
20260905120904 76 140 1.0 3.0 0.00 0.00 0.00 56 1019.2
20260905120005 77 115 1.0 2.0 0.00 0.00 0.00 55 1019.3
20260905115404 77 189 1.0 2.0 0.00 0.00 0.00 55 1019.3
20260905114503 77 160 2.0 2.0 0.00 0.00 0.00 54 1019.3
20260905113604 77 142 3.0 6.0 0.00 0.00 0.00 53 1019.3
20260905112704 78 142 1.0 10.0 0.00 0.00 0.00 53 1019.3
20260905111804 78 82 2.0 5.0 0.00 0.00 0.00 53 1019.1
20260905111118 78 144 2.0 4.0 0.00 0.00 0.00 53 1019.2
20260905110004 79 133 4.0 12.0 0.00 0.00 0.00 51 1019.3
20260905105404 79 4 2.0 8.0 0.00 0.00 0.00 51 1019.1
20260905104720 79 32 1.0 1.0 0.00 0.00 0.00 52 1019.1
20260905103604 79 25 3.0 8.0 0.00 0.00 0.00 52 1019.0
20260905102704 78 28 3.0 3.0 0.00 0.00 0.00 56 1019.0
20260905102022 77 126 4.0 9.0 0.00 0.00 0.00 55 1019.0
20260905100904 76 109 4.0 7.0 0.00 0.00 0.00 55 1019.2
20260905100004 77 151 5.0 8.0 0.00 0.00 0.00 55 1019.2
20260905095404 78 152 4.0 11.0 0.00 0.00 0.00 54 1019.2
20260905094504 78 159 4.0 11.0 0.00 0.00 0.00 55 1019.1
20260905093604 78 114 3.0 10.0 0.00 0.00 0.00 58 1019.0
20260905092704 77 99 4.0 11.0 0.00 0.00 0.00 60 1019.1
20260905091804 76 149 5.0 10.0 0.00 0.00 0.00 61 1019.0
20260905090904 78 125 5.0 9.0 0.00 0.00 0.00 61 1018.8
20260905090005 79 150 5.0 10.0 0.00 0.00 0.00 63 1018.6
20260905085404 79 148 5.0 13.0 0.00 0.00 0.00 64 1018.5
20260905084721 79 177 5.0 9.0 0.00 0.00 0.00 64 1018.4
20260905083818 79 142 6.0 13.0 0.00 0.00 0.00 63 1018.3
20260905082703 80 137 5.0 9.0 0.00 0.00 0.00 62 1018.0
20260905081804 82 341 5.0 7.0 0.00 0.00 0.00 62 1017.7
20260905080904 83 331 3.0 10.0 0.00 0.00 0.00 61 1017.2
20260905080006 83 271 0.0 2.0 0.00 0.00 0.00 62 1016.4
20260905075404 83 0 0.0 0.0 0.00 0.00 0.00 65 1016.3
20260905074504 82 0 0.0 0.0 0.00 0.00 0.00 67 1016.1
20260905073604 81 0 3.0 0.0 0.00 0.00 0.00 65 1016.1
20260905072704 81 275 1.0 5.0 0.00 0.00 0.00 64 1015.9
20260905071804 81 266 0.0 1.0 0.00 0.00 0.00 65 1015.7
20260905071121 81 0 1.0 0.0 0.00 0.00 0.00 64 1015.6
20260905070004 80 264 3.0 6.0 0.00 0.00 0.00 64 1015.5
20260905065404 80 255 2.0 4.0 0.00 0.00 0.00 64 1015.5
20260905064503 80 301 1.0 7.0 0.00 0.00 0.00 65 1015.3
20260905063604 79 311 1.0 1.0 0.00 0.00 0.00 68 1015.1
20260905062704 78 350 1.0 1.0 0.00 0.00 0.00 69 1015.3
20260905061804 77 348 3.0 5.0 0.00 0.00 0.00 70 1015.4
20260905060904 76 350 3.0 5.0 0.00 0.00 0.00 70 1015.3
20260905060004 75 351 1.0 5.0 0.00 0.00 0.00 72 1015.4
20260905055404 75 350 3.0 5.0 0.00 0.00 0.00 72 1015.3
20260905054504 75 351 3.0 8.0 0.00 0.00 0.00 71 1015.2
20260905053604 74 327 3.0 5.0 0.00 0.00 0.00 71 1015.1
20260905052704 74 336 4.0 6.0 0.00 0.00 0.00 71 1015.0
20260905051804 74 341 4.0 6.0 0.00 0.00 0.00 72 1014.9
20260905050904 74 352 3.0 8.0 0.00 0.00 0.00 72 1014.8
20260905050219 73 347 3.0 6.0 0.00 0.00 0.00 72 1014.7
20260905045404 73 357 2.0 7.0 0.00 0.00 0.00 72 1014.6
20260905044504 73 344 2.0 5.0 0.00 0.00 0.00 71 1014.4
20260905043604 74 1 4.0 7.0 0.00 0.00 0.00 71 1014.4
20260905042704 73 346 6.0 7.0 0.00 0.00 0.00 71 1014.4
20260905042020 73 345 4.0 9.0 0.00 0.00 0.00 71 1014.4
20260905041118 74 315 3.0 5.0 0.00 0.00 0.00 70 1014.3
20260905040004 74 341 5.0 6.0 0.00 0.00 0.00 69 1014.2
20260905035403 74 352 5.0 7.0 0.00 0.00 0.00 69 1014.1
20260905034719 75 352 5.0 7.0 0.00 0.00 0.00 68 1013.9
20260905033821 76 348 3.0 10.0 0.00 0.00 0.00 66 1013.9
20260905032919 76 323 2.0 5.0 0.00 0.00 0.00 65 1013.9
20260905031804 78 326 4.0 6.0 0.00 0.00 0.00 64 1013.8
20260905030904 78 287 6.0 10.0 0.00 0.00 0.00 64 1013.9
20260905030221 78 298 7.0 11.0 0.00 0.00 0.00 64 1013.9
20260905025617 78 277 7.0 10.0 0.00 0.00 0.00 64 1013.9
20260905024504 76 280 3.0 7.0 0.00 0.00 0.00 66 1013.9
20260905023604 76 292 4.0 11.0 0.00 0.00 0.00 66 1013.9
20260905022704 77 277 7.0 7.0 0.00 0.00 0.00 65 1013.8
20260905021804 76 285 6.0 8.0 0.00 0.00 0.00 65 1013.9
20260905020904 77 270 7.0 9.0 0.00 0.00 0.00 64 1013.8
20260905020221 77 274 7.0 12.0 0.00 0.00 0.00 64 1013.9
20260905015404 77 262 10.0 13.0 0.00 0.00 0.00 64 1013.9